loading
DOY 175 | 2024-06-23T10:47:08Z

STARLINK-31932, 59929

Orbit data source: Space-Track

STARLINK-31932, 59929 is a payload satellite owned by SpaceX/Seattle (US) in LEO that was launched on Sat, 01 Jun 2024 UTC via a Falcon 9 launch vehicle from the Air Force Eastern Test Range (AFETR). Payloads include a variety of satellites, spacecraft, and rockets equipped with specific instruments for various scientific and technological missions. These include communications satellites like Starlink; space stations such as the ISS; scientific satellites like the Hubble; Earth observation satellites from companies like Planet Labs, Umbra, and HawkEye 360; GPS; miniature CubeSats for education and research; and military/defense satellites.

Next visibility unknown
Loading greatness...
STARLINK-31932 details
NORAD ID59929
COSPAR ID
2024-106H
Orbit
LEO
Last TLE update2 days ago
Origin
Flag of USSpaceX/Seattle (US)
ManufacturerSpaceX/Seattle
BusStarlink V2M
MotorUnknown
Mass750 kg wet, ~700 kg dry
Launch date (UTC)
2024-06-01 (3 weeks ago)
Launch vehicle
Falcon 9
Launch site
Air Force Eastern Test Range (AFETR)
Object type
Payload
Rocket body
Debris
Radar Cross SectionLarge (>1 m²)
Predictive object data (real-time)
Latitude17.36433°
Longitude-46.78348°
Altitude336.837 km
Speed7.709 km/s
Apparent Right ascension17h 28m 16s
Apparent Declination-38° 20' 10"
Sunlit
Object is in full shadow
Predictive observer data (real-time)
Local Sidereal Time21:55:04
Azimuth226.871° WSW
Elevation-9.208°
Doppler factor1
Orbital elements
Apogee329.505 km
Perigee325.811 km
Semi-major axis6,705.795 km
Eccentricity0.0002754
Inclination42.9985°
RAAN300.7089°
Arg. of periapsis259.3917°
True anomaly100.69541°
Mean anomaly100.6644°
Mean motion3.95246 °/min
BSTAR-0.0046162
Period91.08 mins
Definitive object data (Epoch: 2024-06-21T05:34:02.756Z)
Latitude-0.00006°
Longitude-52.71527°
Altitude325.779 km
Speed7.715 km/s
True Right ascension20h 02m 50s
True Declination0° 00' 00"
Sunlit
Object was in full shadow at TLE epoch
TLE from 2 days ago
0 STARLINK-31932
1 59929U 24106H   24173.23197635 -.00867518  00000-0 -46162-2 0  9998
2 59929  42.9985 300.7089 0002754 259.3917 100.6644 15.81687959  4367
Epoch: 2024-06-21T05:34Z
No data available

STARLINK-31932 Visibility forecast

Observer location: 39.9160978°, -105.1181434, 0m alt.

STARLINK-31932 is not visible in the next 10 days
Span
Click to sort rows by Start time (UTC) header in descending order
Start Az.
Max El. time (UTC)
Max El. Az.
Max El.
End time (UTC)
End Az.